Regional Weather Roundup
Issued by NWS

Home | Current Version | Previous Version | Text Only | Print | Product List | Glossary Off
Versions: 1 2 3 4 5 6 7 8 9 10 11 12 13 14 15 16 17 18 19 20 21 22 23 24 25 26 27 28 29 30 31 32 33 34 35 36 37 38 39 40 41 42 43 44 45 46 47 48 49 50

000
ASUS43 KBIS 221610
RWRND

NORTH DAKOTA REGIONAL WEATHER ROUNDUP
NATIONAL WEATHER SERVICE BISMARCK ND
1000 AM CST SUN JAN 22 2017

NOTE: "FAIR" INDICATES FEW OR NO CLOUDS BELOW 12,000 FEET WITH NO
SIGNIFICANT WEATHER AND/OR OBSTRUCTIONS TO VISIBILITY.


NDZ001>003-009>011-017-221700-
NORTHWEST NORTH DAKOTA

CITY           SKY/WX    TMP DP  RH WIND       PRES   REMARKS
WILLISTON      CLOUDY    29  26  89 W9        29.79R
MINOT          CLOUDY    31  28  89 W17       29.73R WCI  19
MINOT AFB      CLOUDY    30  26  86 W17       29.73R WCI  18
$$

NDZ018>021-031>035-040>046-221700-
SOUTHWEST NORTH DAKOTA

CITY           SKY/WX    TMP DP  RH WIND       PRES   REMARKS
BISMARCK       CLOUDY    30  27  88 W9        29.79R FOG
DICKINSON      FOG       25  23  92 NW14      29.77R VSB 1   WCI  13
GARRISON         N/A     30  27  88 NW17      29.75R WCI  18
HETTINGER ARPT CLOUDY    24  22  91 W15       29.81R WCI  11
$$

NDZ004>008-012>016-024-026-027-054-221700-
NORTHEAST NORTH DAKOTA

CITY           SKY/WX    TMP DP  RH WIND       PRES   REMARKS
GRAND FORKS    CLOUDY    35  30  82 W7        29.72R
GRND FRKS AFB  CLOUDY    34  31  89 NW5       29.72R
DEVILS LAKE    CLOUDY    27  26  96 NW14      29.71R FOG     WCI  16
$$

NDZ022-023-025-028>030-036>039-047>053-221700-
SOUTHEAST NORTH DAKOTA

CITY           SKY/WX    TMP DP  RH WIND       PRES   REMARKS
FARGO          CLOUDY    35  32  88 W8        29.73R FOG
JAMESTOWN      CLOUDY    31  29  92 W9        29.73R
$$




USA.gov is the U.S. government's official web portal to all federal, state and local government web resources and services.